Weather History for KEST - October, 2011

Change the Weather History Date:

Tuesday, October 25, 2011

  Actual Average Record
Temperature  
Mean Temperature 49 °F 44 °F  
Max Temperature 59 °F 55 °F 80 °F (1989)
Min Temperature 39 °F 33 °F 19 °F (1957)
Degree Days  
Heating Degree Days 16 21  
Month to date heating degree days 257 403  
Since 1 July heating degree days 477 611  
Cooling Degree Days 0 0  
Month to date cooling degree days 21 4  
Year to date cooling degree days 767 591  
Moisture  
Dew Point 37 °F    
Average Humidity 66    
Maximum Humidity 79    
Minimum Humidity 52    
Precipitation  
Precipitation 0.00 in 0.05 in 0.76 in (2012)
Month to date precipitation 0.26 1.92  
Year to date precipitation 19.02  
Sea Level Pressure  
Sea Level Pressure 29.86 in    
Wind  
Wind Speed 14 mph (NNE)    
Max Wind Speed 26 mph    
Max Gust Speed 37 mph    
Visibility 10 miles    
Events      
T = Trace of Precipitation, MM = Missing Value Source: NWS Daily Summary

Daily Weather History Graph

Daily Weather History Graph

Search for Another Location

Airport or City:

Trip Planner

Search our weather history database for the weather conditions in past years. The results will help you decide how hot, cold, wet, or windy it might be!

Date:

Astronomy

Oct. 25, 2011 Rise Set
Actual Time 7:45 AM CDT 6:20 PM CDT
Civil Twilight 7:15 AM CDT 6:49 PM CDT
Nautical Twilight 6:42 AM CDT 7:23 PM CDT
Astronomical Twilight 6:09 AM CDT 7:56 PM CDT
Moon 6:17 AM CDT (10/25) 5:22 PM CDT (10/25)
Length of Visible Light 11h 33m
Length of Day
10h 35m
Waning Crescent, 2% of the Moon is Illuminated
Oct 25
Waning Crescent
Oct 26
New
Nov 2
First Quarter
Nov 10
Full
Nov 18
Last Quarter

Hourly Weather History & Observations

Time (CDT) Temp. Windchill Dew Point Humidity Pressure Visibility Wind Dir Wind Speed Gust Speed Precip Events Conditions
12:52 AM 50.0 °F - 34.0 °F 54% 29.81 in 10.0 mi ENE 11.5 mph - N/A   Mostly Cloudy
1:52 AM 46.0 °F 41.9 °F 35.1 °F 66% 29.79 in 10.0 mi ENE 8.1 mph - N/A   Clear
2:52 AM 46.0 °F 41.9 °F 36.0 °F 68% 29.77 in 10.0 mi East 8.1 mph - N/A   Clear
3:52 AM 44.1 °F 40.8 °F 35.1 °F 71% 29.74 in 10.0 mi East 5.8 mph - N/A   Clear
4:52 AM 42.1 °F 39.2 °F 35.1 °F 76% 29.74 in 10.0 mi NE 4.6 mph - N/A   Clear
5:52 AM 42.1 °F 37.1 °F 36.0 °F 79% 29.74 in 10.0 mi North 8.1 mph - N/A   Clear
7:52 AM 44.1 °F 39.0 °F 37.0 °F 76% 29.74 in 10.0 mi NNE 9.2 mph - N/A   Clear
10:52 AM 54.0 °F - 43.0 °F 66% 29.76 in 10.0 mi NNE 15.0 mph - N/A   Clear
11:52 AM 55.0 °F - 44.1 °F 67% 29.75 in 10.0 mi NNE 18.4 mph - N/A   Clear
12:52 PM 57.0 °F - 44.1 °F 62% 29.75 in 10.0 mi NNE 23.0 mph 27.6 mph N/A   Clear
1:52 PM 54.0 °F - 43.0 °F 66% 29.77 in 10.0 mi North 19.6 mph 26.5 mph N/A   Partly Cloudy
2:52 PM 55.9 °F - 42.1 °F 60% 29.79 in 10.0 mi NNE 23.0 mph 26.5 mph N/A   Clear
3:52 PM 57.0 °F - 41.0 °F 55% 29.81 in 10.0 mi NNE 24.2 mph 29.9 mph N/A   Clear
4:52 PM 55.0 °F - 39.0 °F 55% 29.86 in 10.0 mi North 21.9 mph 28.8 mph N/A   Overcast
5:52 PM 53.1 °F - 37.0 °F 55% 29.89 in 10.0 mi North 23.0 mph 31.1 mph N/A   Overcast
6:52 PM 50.0 °F - 35.1 °F 57% 29.93 in 10.0 mi North 18.4 mph 27.6 mph N/A   Overcast
7:52 PM 48.0 °F - 35.1 °F 61% 29.95 in 10.0 mi North 17.3 mph - N/A   Scattered Clouds
8:52 PM 45.0 °F 38.2 °F 35.1 °F 68% 30.00 in 10.0 mi North 15.0 mph - N/A   Clear
9:52 PM 43.0 °F 37.2 °F 34.0 °F 71% 30.03 in 10.0 mi North 10.4 mph - N/A   Clear
10:52 PM 42.1 °F 35.7 °F 33.1 °F 70% 30.03 in 10.0 mi North 11.5 mph - N/A   Scattered Clouds
11:00 PM 41.0 °F 34.7 °F 33.8 °F 76% 30.00 in 10.0 mi North 10.4 mph - N/A   Mostly Cloudy
11:09 PM 39.2 °F 32.5 °F 33.8 °F 81% 30.01 in 10.0 mi North 10.4 mph - N/A   Scattered Clouds
11:52 PM 39.0 °F 32.8 °F 33.1 °F 79% 30.03 in 10.0 mi NNW 9.2 mph - N/A   Partly Cloudy